Showing default

ORBCOMM FM 4, 25159

Orbit data source: Space-Track

ORBCOMM FM 4, 25159 is a payload satellite owned by Orbcomm (US) in LEO that was launched on Tue, 10 Feb 1998 UTC via a TAURUS 2210 launch vehicle from the Air Force Western Test Range (AFWTR). Payload-class satellites include a variety of spacecraft equipped with specific instruments for various scientific and technological missions. These include communications satellites like Starlink; space stations such as the ISS; scientific satellites like the Hubble; Earth observation satellites from companies like Planet Labs, Umbra, and HawkEye 360; GPS; miniature CubeSats for education and research; and military/defense satellites.

Loading next visibility...
Identifier
25159, 1998-007C
Orbit
LEO
Country
Flag of USUS / ORB
Related business
Manufacturer
OSC-Germantown
Mission
Operational Commercial Communications
Bus & Motor
MICROSTAR, Unknown motor
Mass
42 kg wet, 42 kg dry
Launch date (UTC)
1998-02-10 (28 years ago)
Launch vehicle
TAURUS 2210
Launch site
Air Force Western Test Range (AFWTR)
Object type
Payload
Rocket body
Debris
Shape & HBR
Cyl + 2 Pan, 4.2 m
Radar Cross Section
1.484 m², Medium (>0.1 m² and < 1m²)

Expand to show TLE details & history
Last TLE update: 7 hours ago

TLE from 7 hours ago
0 ORBCOMM FM 4
1 25159U 98007C   25346.98914263  .00002037  00000-0  74859-3 0  9996
2 25159 107.9626 146.3522 0042428 291.5111  68.1509 14.35271975449873
Epoch: 2025-12-12T23:44Z
TLE epoch observation values (Epoch: 2025-12-12T23:44:21.923Z)
Latitude
-0°
Longitude
68.338°
Altitude
765.469 km
Speed
7.478 km/s
True Right ascension
09h 45m 24s
True Declination
0° 00' 00"
Sunlit
Object was in daylight at epoch
Visualization orbit readout
Latitude
Unknown
Longitude
Unknown
Altitude
Unknown
Speed
Unknown
Apparent Right ascension
Unknown
Apparent Declination
Unknown
Sunlit
N/A
Visualization observer readout
Local Sidereal Time
05:23:55
Azimuth
Unknown
Elevation
Unknown
Doppler factor
Unknown
Orbital elements
Apogee altitude
802.304 km
Perigee altitude
741.631 km
Semi-major axis
7,150.104 km
Eccentricity
0.00424
Inclination
107.9626°
RAAN
146.3522°
Arg. of periapsis
291.5111°
True anomaly
68.60305°
Mean anomaly
68.1509°
Eccentric anomaly
68.37689°
Mean motion
3.58984 °/min
Orbital period
100.28 mins
BSTAR
0.00074859
Loading maneuver chart data...
Computing Atmospheric mass density...
Loading historical data...
Loading historical data...
Loading historical data...
Loading historical data...
Loading historical data...
Loading historical data...
Loading historical data...
Other satellites on launch #7 in the year 1998 (1998-02-10 UTC)

Documentation

Showing up to 5 results
|